ISS (ZARYA), 25544

Orbit data source: Space-Track

The International Space Station (ISS) is a collaborative project involving NASA, Roscosmos, ESA, JAXA, and CSA. It is the largest human-made structure in low Earth orbit (LEO). It serves as a microgravity laboratory where scientific research is conducted in various fields, such as astrobiology, astronomy, meteorology, and physics. Astronauts have continuously inhabited the ISS since Nov 2000, and the space station supports testing spacecraft systems and equipment needed for long-duration missions to the Moon and Mars.

Loading next visibility...
ISS (ZARYA) details
Identifier
25544, 1998-067A
Orbit
LEO
Last TLE update2 hours ago
Origin
Flag of ISSNASA JSC (ISS)
ManufacturerKhrunichev
MissionOperational Civil Spaceship
Bus & Motor77KS, Unknown motor
Mass20,351 kg wet, ~19,000 kg dry
Launch date (UTC)
1998-11-20 (26 years ago)
Launch vehicle
PROTON-K
Launch site
Tyuratam Missile And Space Complex (TTMTR)
Object type
Payload
Rocket body
Debris
Shape & HBRCyl + 2 Pan, 109 m
Radar Cross Section160.273 m², Large (>1 m²)

Expand to show TLE details & history

TLE from 2 hours ago
0 ISS (ZARYA)
1 25544U 98067A   24326.19783079  .00016694  00000-0  30213-3 0  9999
2 25544  51.6413 257.5118 0007521 250.8214  83.2742 15.49764331482898
Epoch: 2024-11-21T04:44Z
Definitive object data (Epoch: 2024-11-21T04:44:52.58Z)
Latitude-20.14912°
Longitude108.82534°
Altitude422.264 km
Speed7.658 km/s
True Right ascension16h 02m 54s
True Declination-20° 01' 58"
Sunlit
Object was in daylight at TLE epoch
Visualization TLE readout
Latitude36.1926°
Longitude160.38325°
Altitude424.774 km
Speed7.659 km/s
Apparent Right ascension17h 41m 32s
Apparent Declination0° 28' 06"
Sunlit
Object is in daylight
Visualization observer readout
Local Sidereal Time03:39:31
Azimuth317.117° NNW
Elevation-41.763°
Doppler factor1
Orbital elements
Apogee altitude423.034 km
Perigee altitude412.811 km
Semi-major axis6,796.06 km
Eccentricity0.0007521
Inclination51.6413°
RAAN257.5118°
Arg. of periapsis250.8214°
True anomaly83.3598°
Mean anomaly83.2742°
Eccentric anomaly83.317°
Mean motion3.87398 °/min
BSTAR0.00030213
Orbital period92.93 mins
Loading maneuver chart data...

ISS (ZARYA) Visibility forecast

Observer location: undefined°, undefined

Span
Click to sort rows by Start time (UTC) header in descending order
Start Az.
Max El. time (UTC)
Max El. Az.
Max El.
End time (UTC)
End Az.
6 mins2024-11-21 22:02:57.485Z209.441° SW2024-11-21 22:05:57.485Z138.078° SSE34.723°2024-11-21 22:08:57.485Z65.383° ENE
5 mins2024-11-22 04:33:57.485Z323.934° NNW2024-11-22 04:35:57.485Z50.755° ENE38.705°2024-11-22 04:38:57.485Z112.767° SE
|